Location: Fauquembergues
(50.6005°N, 2.0987°E)
Time: 04:30:30
(UTC+00:00)

Cosmos 1943 - Pass Details

Date: 14 July 2020
Orbit: 835 x 848 km, 71.0° (Epoch: 06 August)

Event Time Altitude Azimuth Distance (km) Brightness Sun altitude
Exits shadow 00:19:50 13° 238° (WSW) 2,267 5.1 -17.6°
Maximum altitude 00:24:41 45° 308° (NW) 1,136 4.1 -17.5°
Drops below altitude 10° 00:30:07 10° 21° (NNE) 2,469 6.8 -17.4°
Sets 00:32:41 0° 28° (NNE) 3,405 7.7 -17.3°
